Find Starlink 32350

NORAD ID: 61063 Int'l Des: 2024-164 Owner: SPXS Country: US Constellation: starlink operational
LEOCIRCULAR

リアルタイム位置

3D地球を読み込み中...

Starlink 32350について

説明を読み込み中...

次回通過

Passes for default location (London). Set your location on the main map for personalized predictions.

高度履歴

Loading altitude history...

軌道要素

1 61063U 24164P 26126.53128542 -.00000227 00000-0 44569-5 0 9995
2 61063 53.1617 182.4233 0001392 78.1711 281.9446 15.30189804 92334
Epoch: May 6, 2026 • Age: 31 hours

現在のステータス

高度 480.2 km
速度 7.63 km/s
衛星直下点 -16.61°S, 147.44°W
打ち上げ日 Sep 13, 2024
運用期間 1.6 years
タイプ internet

技術仕様

分類 Payload
質量 730.00 kg
乾燥質量 700.00 kg
総質量 730.00 kg
長さ 0.30 m
直径 4.10 m
スパン 29.00 m
形状 Box + pan
製造者 SPXS
バスタイプ Starlink V2M
フェーズステータス In Orbit
所有者/国 SPXS/US

Most Searched